Location: *
(33.7606°S, 62.0658°E)
Time: 21:32:47
(UTC+00:00)

Daily predictions for brighter satellites

Satellite Brightness Start Highest point End
(mag) Time Altitude Azimuth Time Altitude Azimuth Time Altitude Azimuth
Cosmos 2263 Rocket 3.9 13:32:47 10° ENE 13:34:42 12° E 13:36:38 10° ESE
IRS-1C 4.3 13:30:03 10° SSE 13:35:21 56° ENE 13:40:35 10° N
USA 215 3.7 13:31:17 10° SE 13:37:48 67° SW 13:44:17 10° NW
Cosmos 1703 Rocket 4.0 13:34:35 10° NNW 13:38:53 66° W 13:43:14 10° S
Lacrosse 5 rocket 2.3 13:35:32 10° SW 13:39:28 50° NW 13:43:21 10° NNE
BlueWalker 3 2.8 13:38:06 10° SSW 13:41:22 28° SE 13:44:36 10° E
CENTAUR R/B 1.7 13:36:22 10° SSW 13:41:24 79° ESE 13:45:57 10° NNE
SEDSat Delta rocket 4.3 13:35:55 10° W 13:42:03 55° NNW 13:47:31 10° ENE
Cosmos 1782 Rocket 4.0 13:37:50 10° S 13:42:04 39° E 13:46:16 10° NNE
CZ-2D R/B 2.9 13:40:01 10° SSE 13:43:26 63° E 13:46:47 10° N
Cosmos 2219 Rocket 3.8 13:39:10 10° SW 13:44:27 41° WNW 13:49:44 10° N
Cosmos 2227 Rocket 2.7 13:42:42 10° N 13:47:54 38° ENE 13:53:09 10° SE
ARIANE 5 R/B 2.5 13:44:38 10° SSE 13:49:44 79° ENE 13:54:48 10° N
Cosmos 1980 4.4 13:47:30 10° S 13:52:35 32° ESE 13:57:36 10° NE
Cosmos 1328 3.8 13:50:56 10° NNE 13:54:26 47° E 13:57:59 10° SSE
NOSS 0 Rocket 3.9 13:53:10 10° SSW 13:59:19 64° ESE 14:05:25 10° NNE
Yuri Rocket 3.8 14:03:31 10° WNW 14:07:26 41° N 14:10:59 14° ENE
USA 267 4.3 14:03:20 14° E 14:07:41 27° SSE 14:12:59 10° SSW
Cosmos 1269 Rocket 4.1 14:06:26 10° N 14:11:34 54° ENE 14:16:47 10° SSE
USA 308 1.5 14:10:40 10° WNW 14:11:44 34° SW 14:11:53 33° SSW
USA 59 Rocket 4.0 14:07:44 10° SW 14:12:16 13° SSW 14:16:51 10° S
Genesis I 2.0 14:11:09 10° SSW 14:13:49 72° ESE 14:16:23 11° NE
CZ-2D R/B 3.3 14:13:36 10° SSE 14:17:41 69° ENE 14:21:49 10° N
ACS3 Solar Sail 2.4 14:11:57 10° S 14:18:09 61° WSW 14:24:11 10° NNW
NOSS 3-4 (A) 4.4 14:14:43 10° N 14:23:16 58° ENE 14:31:36 10° SE
NOSS 3-4 (C) 4.4 14:14:51 10° N 14:23:24 57° ENE 14:31:44 10° SE
Nadezhda 4 Rocket 4.0 14:19:03 10° N 14:25:19 83° E 14:31:43 10° S
Cosmos 1992 Rocket 3.9 14:20:37 10° S 14:25:50 63° ESE 14:30:59 10° NNE
SMAP 3.6 14:23:18 10° S 14:27:57 60° WSW 14:32:33 10° NNW
USA 81 4.1 14:23:25 10° N 14:28:41 82° W 14:34:03 10° S
AQUARIUS 4.1 14:25:05 10° SSE 14:29:35 88° E 14:34:02 10° NNW
Cosmos 2237 Rocket 2.1 14:26:49 10° SSW 14:32:33 68° ESE 14:38:11 10° NNE
Cosmos 2195 Rocket 4.4 14:27:10 10° N 14:33:09 60° E 14:39:15 10° SSE
IGS 5A 4.3 14:29:55 10° S 14:33:52 50° WSW 14:37:46 10° NNW
COSMOS 2428 4.3 14:34:54 10° SW 14:40:06 37° WNW 14:45:16 10° N
Meteor 1-21 Rocket 4.3 14:42:29 10° N 14:48:14 60° E 14:53:58 10° SSE
Cosmos 2219 3.2 14:45:47 10° N 14:51:23 60° ENE 14:53:59 31° SE
SL-16 R/B 3.5 14:48:10 10° S 14:51:17 23° SSE 14:51:17 23° SSE
BREEZE-M DEB (TANK) 4.4 14:43:20 10° WSW 14:53:25 38° S 14:54:44 33° SE
COSMOS 2455 4.2 14:52:02 10° S 14:55:19 22° SSE 14:55:19 22° SSE
Cosmos 1378 Rocket 3.7 14:52:52 10° NNW 14:57:17 73° W 15:01:44 10° S
EXPRESS MD2 4.4 14:53:03 10° WNW 14:57:32 74° SW 15:01:38 28° SE
Cosmos 407 Rocket 3.5 14:52:57 10° N 14:57:41 51° ENE 14:57:41 51° ENE
NOSS 3-2 (A) 4.2 14:57:53 10° SW 15:03:17 42° WNW 15:07:55 10° N
Landsat 7 4.1 14:59:08 10° S 15:03:49 64° WSW 15:08:26 10° NNW
Cosmos 1140 Rocket 3.8 15:02:42 10° NNW 15:07:46 65° WSW 15:11:43 17° S
SL-08 R/B 4.2 15:03:43 10° N 15:08:26 50° W 15:13:08 10° SSW
Cosmos 2026 Rocket 4.0 15:03:05 10° N 15:09:19 82° W 15:15:32 10° S
ISS -1.2 15:08:05 10° SSW 15:08:59 16° SSW 15:08:59 16° SSW
DELTA 2 R/B (1) 4.0 15:07:16 10° WSW 15:12:39 46° S 15:13:05 45° SSE
Cosmos 2263 Rocket 2.3 15:12:12 10° NNW 15:17:51 73° WSW 15:20:25 34° S
BlueWalker 3 3.8 15:15:59 10° WSW 15:19:01 24° NW 15:19:25 24° NW
Cosmos 1092 Rocket 4.2 15:15:48 10° NNW 15:22:06 70° W 15:28:31 10° S
Cosmos 1674 Rocket 4.4 15:18:34 10° NNW 15:22:44 48° W 15:24:30 30° SSW
Cosmos 2227 Rocket 4.2 15:27:22 10° WNW 15:31:58 25° WSW 15:36:39 10° S
Cosmos 2082 3.8 15:30:45 10° NNW 15:35:59 71° WNW 15:35:59 71° WNW
NOSS 3-2 (C) 3.5 15:34:40 10° SW 15:40:09 57° WNW 15:40:09 57° WNW
USA 267 3.3 15:50:42 76° SW 15:50:42 76° SW 15:56:43 10° SW
USA 59 Rocket 4.2 17:54:55 10° SSW 17:55:28 11° S 17:55:28 11° S
Cosmos 1980 Rocket 4.2 23:13:49 23° E 23:13:49 23° E 23:18:00 10° SE
CZ-3 Stage 3 3.8 23:16:39 51° NNE 23:16:42 51° NNE 23:36:38 10° E
H-2A R/B 4.1 23:29:42 20° ENE 23:29:42 20° ENE 23:33:11 10° E
ATLAS 5 CENTAUR R/B 4.4 23:33:49 21° S 23:33:49 21° S 23:36:14 10° SSE
NOSS 3-4 (A) 3.8 23:51:33 57° SSE 23:52:13 60° SE 23:57:58 10° NE
NOSS 3-4 (C) 3.8 23:51:36 55° SSE 23:52:21 59° SE 23:58:05 10° NE
Hubble Space Telescope 3.3 23:57:21 16° ENE 23:57:21 16° ENE 23:58:21 10° ENE
